Weather History for Laramie, WY

Change the Weather History Date:

Monday, May 12, 2014

  Actual Average Record
Temperature  
Mean Temperature 26 °F 46 °F  
Max Temperature 29 °F 60 °F 81 °F (1960)
Min Temperature 22 °F 33 °F 18 °F (1983)
Degree Days  
Heating Degree Days 39 19  
Month to date heating degree days 275 246  
Since 1 July heating degree days 8110 8295  
Cooling Degree Days 0 0  
Month to date cooling degree days 0 0  
Year to date cooling degree days 0 0  
Moisture  
Dew Point 22 °F    
Average Humidity 85    
Maximum Humidity 96    
Minimum Humidity 74    
Precipitation  
Precipitation T in 0.05 in 0.32 in (1980)
Month to date precipitation 0.81 0.56  
Year to date precipitation 3.34 2.82  
Sea Level Pressure  
Sea Level Pressure 30.23 in    
Wind  
Wind Speed 12 mph (North)    
Max Wind Speed 25 mph    
Max Gust Speed 32 mph    
Visibility 4 miles    
Events Fog , Snow    
T = Trace of Precipitation, MM = Missing Value Source: NWS Daily Summary

Daily Weather History Graph

Daily Weather History Graph

Search for Another Location

Airport:

Trip Planner

Search our weather history database for the weather conditions in past years. The results will help you decide how hot, cold, wet, or windy it might be!

Date:

Astronomy

May. 12, 2014 Rise Set
Actual Time 5:47 AM MDT 8:11 PM MDT
Civil Twilight 5:15 AM MDT 8:42 PM MDT
Nautical Twilight 4:37 AM MDT 9:21 PM MDT
Astronomical Twilight 3:54 AM MDT 10:04 PM MDT
Moon 6:11 PM MDT (5/12) 4:29 AM MDT (5/12)
Length of Visible Light 15h 27m
Length of Day
14h 24m
Waxing Gibbous, 95% of the Moon is Illuminated
May 12
Waxing Gibbous
May 14
Full
May 21
Last Quarter
May 28
New
Jun 5
First Quarter

Hourly Weather History & Observations

Time (MDT) Temp. Windchill Dew Point Humidity Pressure Visibility Wind Dir Wind Speed Gust Speed Precip Events Conditions
12:10 AM 26.1 °F 13.6 °F 23.0 °F 88% 30.09 in 3.0 mi NNE 16.1 mph 20.7 mph 0.00 in Snow Light Snow
12:20 AM 26.1 °F 12.7 °F 23.0 °F 88% 30.08 in 1.8 mi NNE 18.4 mph - 0.00 in Snow Light Snow
12:53 AM 26.1 °F 12.3 °F 23.0 °F 88% 30.12 in 0.8 mi NNE 19.6 mph 25.3 mph 0.00 in Snow Light Snow
1:05 AM 26.1 °F 13.6 °F 23.0 °F 88% 30.07 in 1.0 mi NNE 16.1 mph - 0.00 in Snow Light Snow
1:31 AM 26.1 °F 12.3 °F 23.0 °F 88% 30.06 in 1.8 mi NNE 19.6 mph 25.3 mph 0.00 in Snow Light Snow
1:53 AM 26.1 °F 13.1 °F 23.0 °F 88% 30.12 in 1.8 mi North 17.3 mph 24.2 mph 0.00 in Snow Light Snow
2:03 AM 26.1 °F 14.0 °F 23.0 °F 88% 30.07 in 2.0 mi North 15.0 mph - 0.00 in Snow Light Snow
2:14 AM 26.1 °F 14.5 °F 23.0 °F 88% 30.08 in 1.5 mi NNE 13.8 mph - 0.00 in Snow Light Snow
2:43 AM 25.0 °F 11.7 °F 23.0 °F 92% 30.08 in 0.8 mi North 17.3 mph - 0.00 in Snow Light Snow
2:51 AM 24.8 °F 11.9 °F 23.0 °F 93% 30.09 in 0.5 mi North 16.1 mph - 0.00 in Fog , Snow Snow
2:53 AM 25.0 °F 12.2 °F 23.0 °F 92% 30.14 in 0.5 mi North 16.1 mph - 0.00 in Fog , Snow Snow
3:13 AM 25.0 °F 12.2 °F 23.0 °F 92% 30.11 in 0.8 mi North 16.1 mph - 0.00 in Snow Light Snow
3:22 AM 25.0 °F 13.1 °F 23.0 °F 92% 30.11 in 1.0 mi North 13.8 mph - 0.00 in Snow Light Snow
3:53 AM 24.1 °F 10.1 °F 23.0 °F 96% 30.19 in 0.8 mi North 18.4 mph - 0.00 in Snow Light Snow
4:11 AM 24.1 °F 10.1 °F 21.9 °F 91% 30.12 in 0.5 mi North 18.4 mph - 0.00 in Fog , Snow Snow
4:17 AM 24.1 °F 10.6 °F 21.9 °F 91% 30.12 in 0.8 mi North 17.3 mph - 0.00 in Snow Light Snow
4:53 AM 24.1 °F 9.8 °F 21.0 °F 88% 30.19 in 0.5 mi NNE 19.6 mph 26.5 mph 0.00 in Fog , Snow Snow
5:28 AM 23.0 °F 7.2 °F 21.0 °F 92% 30.13 in 0.8 mi NNE 23.0 mph 29.9 mph 0.00 in Snow Light Snow
5:53 AM 23.0 °F 7.6 °F 19.9 °F 88% 30.22 in 1.0 mi NNE 21.9 mph 31.1 mph 0.00 in Snow Light Snow
6:02 AM 23.0 °F 8.0 °F 19.9 °F 88% 30.15 in 0.5 mi NNE 20.7 mph 29.9 mph 0.00 in Fog , Snow Light Snow
6:16 AM 23.0 °F 8.3 °F 19.9 °F 88% 30.16 in 0.8 mi NNE 19.6 mph 28.8 mph 0.00 in Snow Light Snow
6:49 AM 21.2 °F 5.6 °F 19.4 °F 93% 30.18 in 1.0 mi NNE 20.7 mph - 0.00 in Snow Light Snow
6:53 AM 21.9 °F 7.3 °F 19.0 °F 89% 30.27 in 0.8 mi NNE 18.4 mph - 0.00 in Snow Light Snow
8:10 AM 23.0 °F 10.1 °F 19.0 °F 85% 30.21 in 0.8 mi North 15.0 mph - 0.00 in Snow Light Snow
8:49 AM 23.0 °F 11.7 °F 19.4 °F 86% 30.22 in 1.0 mi North 11.5 mph - 0.00 in Snow Light Snow
8:53 AM 24.1 °F 12.5 °F 19.9 °F 84% 30.30 in 1.0 mi North 12.7 mph - 0.00 in Snow Light Snow
9:45 AM 25.0 °F 14.8 °F 21.0 °F 85% 30.24 in 2.0 mi North 10.4 mph - 0.00 in Snow Light Snow
9:53 AM 25.0 °F 14.8 °F 21.0 °F 85% 30.32 in 1.8 mi NNW 10.4 mph - 0.00 in Snow Light Snow
10:10 AM 26.1 °F 16.2 °F 21.9 °F 84% 30.25 in 1.0 mi North 10.4 mph - 0.00 in Snow Light Snow
10:51 AM 26.6 °F 15.2 °F 21.2 °F 80% 30.26 in 3.0 mi North 13.8 mph - 0.00 in Snow Light Snow
10:52 AM 26.1 °F 14.5 °F 21.0 °F 81% 30.33 in 3.0 mi North 13.8 mph - 0.00 in Snow Light Snow
11:14 AM 27.0 °F 16.1 °F 21.9 °F 81% 30.26 in 3.0 mi North 12.7 mph - 0.00 in Snow Light Snow
11:21 AM 27.0 °F 16.7 °F 21.9 °F 81% 30.26 in 5.0 mi North 11.5 mph - 0.00 in Snow Light Snow
11:53 AM 28.9 °F 19.8 °F 21.9 °F 75% 30.32 in 9.0 mi NNW 10.4 mph - 0.00 in Snow Light Snow
12:03 PM 27.0 °F 17.3 °F 21.9 °F 81% 30.27 in 1.8 mi NNW 10.4 mph - 0.00 in Snow Light Snow
12:07 PM 27.0 °F 18.0 °F 21.9 °F 81% 30.27 in 2.0 mi NNW 9.2 mph - 0.00 in Snow Light Snow
12:15 PM 28.0 °F 18.1 °F 21.0 °F 75% 30.27 in 7.0 mi North 11.5 mph - 0.00 in Snow Light Snow
12:37 PM 27.0 °F 15.6 °F 21.9 °F 81% 30.27 in 1.8 mi NW 13.8 mph - 0.00 in Snow Light Snow
12:49 PM 28.4 °F 18.5 °F 21.2 °F 74% 30.27 in 2.0 mi NW 11.5 mph - 0.00 in Snow Light Snow
12:53 PM 27.0 °F 16.1 °F 21.9 °F 81% 30.33 in 5.0 mi NW 12.7 mph - 0.00 in Snow Light Snow
1:22 PM 27.0 °F 15.6 °F 21.0 °F 78% 30.27 in 2.0 mi NNW 13.8 mph - 0.00 in Snow Light Snow
1:25 PM 28.0 °F 17.0 °F 21.9 °F 78% 30.28 in 3.0 mi NW 13.8 mph - 0.00 in Snow Light Snow
1:53 PM 28.0 °F 18.1 °F 21.9 °F 78% 30.34 in 10.0 mi NW 11.5 mph - 0.00 in   Overcast
2:15 PM 28.0 °F 17.5 °F 21.9 °F 78% 30.28 in 10.0 mi NW 12.7 mph - 0.00 in   Overcast
2:28 PM 28.0 °F 18.1 °F 21.9 °F 78% 30.28 in 10.0 mi NNW 11.5 mph - 0.00 in   Mostly Cloudy
2:42 PM 28.0 °F 18.6 °F 21.9 °F 78% 30.29 in 10.0 mi NW 10.4 mph - 0.00 in   Partly Cloudy
2:53 PM 28.0 °F 18.6 °F 21.9 °F 78% 30.35 in 10.0 mi NNW 10.4 mph - 0.00 in   Partly Cloudy
3:29 PM 28.0 °F 18.6 °F 21.9 °F 78% 30.28 in 8.0 mi NW 10.4 mph - N/A   Mostly Cloudy
3:43 PM 28.9 °F 19.2 °F 23.0 °F 78% 30.28 in 10.0 mi NNW 11.5 mph - N/A   Scattered Clouds
3:53 PM 28.0 °F - 23.0 °F 81% 30.35 in 10.0 mi North - - N/A   Scattered Clouds
5:53 PM 28.0 °F 18.1 °F 23.0 °F 81% 30.37 in 10.0 mi NW 11.5 mph - N/A   Partly Cloudy
6:53 PM 27.0 °F 18.7 °F 23.0 °F 85% 30.38 in 10.0 mi NW 8.1 mph - N/A   Mostly Cloudy
7:07 PM 26.1 °F 16.2 °F 21.9 °F 84% 30.30 in 6.0 mi NW 10.4 mph - 0.00 in Snow Light Snow
7:17 PM 26.1 °F 16.2 °F 21.9 °F 84% 30.30 in 10.0 mi NW 10.4 mph - 0.00 in   Scattered Clouds
7:53 PM 23.0 °F 13.1 °F 19.9 °F 88% 30.42 in 10.0 mi NW 9.2 mph - 0.00 in   Partly Cloudy
9:53 PM 25.0 °F 17.1 °F 21.9 °F 88% 30.43 in 10.0 mi NW 6.9 mph - N/A   Overcast
10:53 PM 24.1 °F 15.2 °F 19.9 °F 84% 30.44 in 10.0 mi NW 8.1 mph - N/A   Overcast